Location: Unspecified
(0.0000°N, 0.0000°E)
Time: 13:55:14
(UTC+00:00)

AO-7 - Pass Details

Date: 12 December 2017
Orbit: 1440 x 1458 km, 101.7° (Epoch: 17 January)

Event Time Altitude Azimuth Distance (km) Brightness Sun altitude
Exits shadow 01:30:31 - 82° (E) 3,821 ? -57.0°
Reaches altitude 10° 01:32:58 10° 98° (E) 3,578 ? -56.6°
Maximum altitude 01:34:23 11° 108° (ESE) 3,538 ? -56.4°
Drops below altitude 10° 01:35:49 10° 118° (ESE) 3,578 ? -56.1°
Sets 01:42:05 0° 153° (SSE) 4,557 ? -55.0°
